Probability
0 0 0 0 0 0 0 0 0 0 0 0 0 0 0 0 0 0 0 0 0 0 0 0 0 0 0 0 0 0 0 0 0 0 0 0 0 0 0 0 0 0 0
0 0 0 0 0 0 0 0 0 0 0 0 0 0 0 0 0 0 0 0 0 0 0 0 0 0 0 0 0 0 0 0 0 0 0 0 0 0 0 0 0 0 0
0 0 0 0 0 0 0 0 0 0 0 0 0 0 0 0 0 0 0 0 0 0 0 0 0 0 0 0 0 0 0 0 0 0 0 0 0 0 0 0 0 0 0
0 0 0 0 0 0 0 0 0 0 0 0 0 0 0 0 0 0 0 0 0 0 0 0 0 0 0 0 0 0 0 0 0 0 0 0 0 0 0 0 0 0 0
0 0 0 0 0 0 0 0 0 0 0 0 0 0 0 0 0 0 0 0 0 0 0 0 0 0 0 0 0 0 0 0 0 0 0 0 0 0 0 0 0 0 0
0 0 0 0 0 0 0 0 0 0 0 0 0 0 0 0 0 0 0 0 0 0 0 0 0 0 0 0 0 0 0 0 0 0 0 0 0 0 0 0 0 0 0
0 0 0 0 0 0 0 0 0 0 0 0 0 0 0 0 0 0 0 0 0 0 0 0 0 0 0 0 0 0 0 0 0 0 0 0 0 0 0 0 0 0 0
0 0 0 0 0 0 0 0 0 0 0 0 0 0 0 0 0 0 0 0 0 0 0 0 0 0 0 0 0 0 0 0 0 0 0 0 0 0 0 0 0 0 0
0 0 0 0 0 0 0 0 0 0 0 0 0 0 0 0 0 0 0 0 0 0 0 0 0 0 0 0 0 0 0 0 0 0 0 0 0 0 0 0 0 0 0
0 0 0 0 0 0 0 0 0 0 0 0 0 0 0 0 0 0 0 0 0 0 0 0 0 0 0 0 0 0 0 0 0 0 0 0 0 0 0 0 0 0 0
0 0 0 0 0 0 0 0 0 0 0 0 0 0 0 0 0 0 0 0 0 0 0 0 0 0 0 0 0 0 0 0 0 0 0 0 0 0 0 0 0 0 0
0 0 0 0 0 0 0 0 0 0 0 0 0 0 0 0 0 0 0 0 0 0 0 0 0 0 0 0 0 0 0 0 0 0 0 0 0 0 0 0 0 0 0
0 0 0 0 0 0 0 0 0 0 0 0 0 0 0 0 0 0 0 0 0 0 0 0 0 0 0 0 0 0 0 0 0 0 0 0 0 0 0 0 0 0 0
0 0 0 0 0 0 0 0 0 0 0 0 0 0 0 0 0 0 0 0 0 0 0 0 0 0 0 0 0 0 0 0 0 0 0 0 0 0 0 0 0 0 0
0 0 0 0 0 0 0 0 0 0 0 0 0 0 0 0 0 0 0 0 0 0 0 0 0 0 0 0 0 0 0 0 0 0 0 0 0 0 0 0 0 0 0
0 0 0 0 0 0 0 0 0 0 0 0 0 0 0 0 0 0 0 0 0 0 0 0 0 0 0 0 0 0 0 0 0 0 0 0 0 0 0 0 0 0 0
0 0 0 0 0 0 0 0 0 0 0 0 0 0 0 0 0 0 0 0 0 0 0 0 0 0 0 0 0 0 0 0 0 0 0 0 0 0 0 0 0 0 0
0 0 0 0 0 0 0 0 0 0 0 0 0 0 0 0 0 0 0 0 0 0 0 0 0 0 0 0 0 0 0 0 0 0 0 0 0 0 0 0 0 0 0
0 0 0 0 0 0 0 0 0 0 0 0 0 0 0 0 0 0 0 0 0 0 0 0 0 0 0 0 0 0 0 0 0 0 0 0 0 0 0 0 0 0 0
0 0 0 0 0 0 0 0 0 0 0 0 0 0 0 0 0 0 0 0 0 0 0 0 0 0 0 0 0 0 0 0 0 0 0 0 0 0 0 0 0 0 0
0 0 0 0 0 0 0 0 0 0 0 0 0 0 0 0 0 0 0 0 0 0 0 0 0 0 0 0 0 0 0 0 0 0 0 0 0 0 0 0 0 0 0
0 0 0 0 0 0 0 0 0 0 0 0 0 0 0 0 0 0 0 0 0 0 0 0 0 0 0 0 0 0 0 0 0 0 0 0 0 0 0 0 0 0 0
0 0 0 0 0 0 0 0 0 0 0 0 0 0 0 0 0 0 0 0 0 0 0 0 0 0 0 0 0 0 0 0 0 0 0 0 0 0 0 0 0 0 0
0 0 0 0 0 0 0 0 0 0 0 0 0 0 0 0 0 0 0 0 0 0 0 0 0 0 0 0 0 0 0 0 0 0 0 0 0 0 0 0 0 0 0
0 0 0 0 0 0 0 0 0 0 0 0 0 0 0 0 0 0 0 0 0 0 0 0 0 0 0 0 0 0 0 0 0 0 0 0 0 0 0 0 0 0 0
0 0 0 0 0 0 0 0 0 0 0 0 0 0 0 0 0 0 0 0 0 0 0 0 0 0 0 0 0 0 0 0 0 0 0 0 0 0 0 0 0 0 0
Wind_Speed
2 2 2 3 3 3 3 4 4 3 3 4 4 4 4 4 4 4 4 4 5 4 4 5 5 5 4 3 3 3 4 3 6 5 3 3 4 4 5 4 5 5 5
1 1 2 2 2 3 3 4 3 3 3 4 4 4 4 4 4 5 5 5 5 5 5 5 5 4 5 4 4 5 4 4 5 6 4 3 4 5 5 5 6 5 5
1 1 2 2 2 3 3 3 3 3 3 3 3 4 4 4 4 4 4 5 5 5 5 6 6 5 6 4 4 5 4 5 4 4 5 3 3 3 4 5 6 5 6
1 1 2 2 3 3 3 3 3 2 3 3 3 3 4 4 4 4 4 4 5 5 5 5 6 6 7 6 5 5 5 5 4 4 5 4 4 3 3 4 5 4 5
1 2 3 3 2 2 2 2 2 2 3 3 3 3 3 3 4 4 4 5 5 5 5 5 6 7 8 7 6 5 5 5 4 5 5 4 4 3 4 4 5 5 5
2 2 3 2 2 2 2 2 1 2 2 1 2 3 4 4 6 7 6 4 4 5 5 5 6 7 8 10 10 9 8 7 6 6 6 6 6 5 4 4 5 5 5
2 3 3 2 2 2 1 1 1 1 1 1 2 2 4 5 8 8 8 5 4 5 5 4 4 5 7 5 7 9 9 10 10 7 8 8 7 5 5 6 6 6 7
2 2 2 2 2 2 2 1 1 1 1 2 2 2 3 5 8 8 8 4 3 4 5 5 5 5 6 6 5 5 6 7 8 7 7 7 7 6 6 7 7 7 6
2 2 2 2 2 2 2 2 2 1 2 2 2 2 3 5 7 8 7 2 3 4 4 5 5 6 9 9 6 6 6 6 7 9 9 9 10 11 8 4 4 5 6
3 3 2 2 2 2 2 2 2 2 2 2 3 3 3 4 6 7 7 2 3 4 4 5 8 8 9 9 6 6 7 6 5 6 7 7 7 7 9 6 5 5 5
3 3 2 2 2 2 2 2 2 2 2 2 3 3 3 4 6 7 8 3 3 4 4 4 4 9 10 10 8 6 7 6 5 5 5 5 4 4 4 5 5 5 6
2 2 3 2 2 2 2 2 2 1 2 2 3 3 3 4 6 7 9 8 6 4 4 4 5 9 9 9 7 7 9 8 4 3 4 4 4 4 4 5 5 5 6
2 2 3 3 2 2 2 2 2 1 1 2 2 3 3 3 4 8 9 9 8 5 4 7 7 8 8 6 8 9 7 4 3 4 4 5 4 4 4 4 5 5 5
2 2 2 2 2 2 2 2 2 2 2 2 3 3 3 3 4 4 4 4 6 5 4 5 7 7 6 6 5 5 4 4 4 4 4 4 3 3 4 4 4 4 4
2 2 2 2 2 2 2 2 3 3 3 3 3 3 3 4 5 8 6 4 3 3 2 2 2 2 2 3 3 3 3 3 4 3 3 3 4 4 4 3 4 4 5
2 2 2 2 2 2 2 3 4 4 6 7 6 6 5 6 9 9 8 7 7 6 3 2 2 2 3 3 3 3 3 3 4 4 4 4 4 4 4 4 4 4 5
2 2 2 2 2 2 2 3 4 4 6 7 7 8 7 8 9 9 8 8 7 5 2 2 2 3 3 3 3 3 4 4 3 4 4 4 4 4 4 4 4 4 5
2 3 3 2 2 2 2 3 3 3 4 4 6 8 9 9 9 9 8 6 4 3 2 2 3 3 3 3 3 4 4 3 3 4 4 4 4 4 4 5 5 5 5
2 2 2 2 2 2 2 2 3 3 3 4 4 5 8 8 8 8 7 2 2 3 3 3 3 3 3 3 3 4 4 4 4 4 4 4 4 4 5 5 5 7 7
2 4 3 2 2 2 2 2 2 3 3 4 4 4 5 5 3 4 3 3 2 3 3 3 3 3 3 3 3 3 4 4 4 4 4 4 4 4 5 6 5 5 5
2 3 4 2 2 2 2 2 3 3 3 4 4 5 7 3 3 3 3 3 3 3 3 4 4 4 4 3 3 4 4 4 4 4 4 4 4 4 5 5 5 5 5
2 2 2 2 2 2 2 2 2 3 3 4 4 4 7 4 3 3 3 4 3 3 3 3 4 4 4 4 4 4 4 5 5 5 5 5 5 5 5 5 5 5 5
1 2 2 2 2 4 3 3 3 3 4 4 4 4 4 3 3 3 4 4 4 4 4 3 4 4 4 4 4 4 5 5 5 5 5 5 5 5 5 5 6 5 5
1 2 2 2 2 2 3 3 3 3 4 4 4 4 4 4 4 4 4 4 4 4 4 4 4 5 7 6 4 4 5 5 6 5 6 5 5 5 5 5 5 6 5
1 2 2 2 2 2 3 3 3 4 4 4 4 4 4 4 4 4 4 4 4 4 5 5 4 5 7 8 7 6 9 11 9 6 4 4 5 5 5 5 5 5 5
1 2 2 2 2 3 3 3 3 4 3 4 4 4 4 4 4 4 4 4 4 5 5 5 6 7 8 7 8 10 12 11 11 10 6 4 4 4 4 4 5 5 5
Wind_Direction
235 231 232 240 238 230 231 228 224 223 218 218 224 224 228 231 229 228 236 237 238 242 241 236 238 235 236 241 237 231 231 229 249 266 266 273 268 276 287 283 277 271 268
262 254 248 246 239 234 244 242 227 225 226 225 226 229 233 238 234 231 234 235 235 239 243 243 244 240 235 235 233 233 235 235 238 260 270 269 264 264 269 277 284 284 271
301 282 275 263 242 235 241 244 233 227 230 229 226 234 238 238 234 233 236 239 240 241 241 241 246 242 243 238 237 237 236 245 241 249 265 265 267 267 276 279 277 275 277
314 295 277 268 257 248 244 239 234 228 229 230 233 237 243 246 243 241 239 241 245 247 246 245 246 242 243 240 242 242 238 242 247 250 261 265 263 259 251 264 277 272 276
321 305 282 278 276 264 250 243 237 237 241 237 236 248 251 247 244 247 242 240 244 248 250 249 251 254 254 250 247 242 237 239 244 249 259 265 262 255 250 254 268 280 278
313 303 306 309 303 283 263 245 239 243 252 259 259 257 259 256 262 260 254 242 245 247 252 252 253 258 262 264 262 258 250 240 237 241 251 256 259 256 259 265 271 279 279
319 315 316 315 309 304 304 315 279 266 271 273 269 268 269 265 262 262 261 253 243 246 250 254 260 262 266 259 266 270 268 265 256 247 249 253 255 252 253 261 261 266 267
311 314 320 325 325 325 330 321 304 285 262 261 267 267 275 277 272 268 269 261 251 251 248 248 254 262 260 261 257 260 261 265 263 253 249 254 255 252 243 252 259 270 275
306 307 314 318 316 321 317 308 302 290 285 276 276 272 272 280 278 274 274 260 255 261 258 252 253 255 262 265 258 259 264 268 275 268 266 270 273 274 268 258 257 262 274
298 300 306 302 296 295 294 298 297 290 283 288 290 284 275 276 278 280 277 265 261 265 264 258 258 261 265 263 255 253 259 262 269 276 278 279 275 275 275 255 245 248 262
304 316 316 309 299 288 288 292 292 293 298 294 293 292 286 283 282 279 276 267 253 260 263 262 262 267 269 269 265 256 261 269 264 262 266 271 270 265 263 257 246 241 248
315 318 313 311 305 305 302 298 293 285 291 292 293 297 292 288 286 283 279 274 269 258 260 259 262 271 274 277 274 271 273 274 262 258 260 264 267 268 265 262 259 252 249
306 303 303 313 315 303 287 288 296 283 273 281 283 285 292 292 290 290 286 283 280 270 261 264 267 270 274 274 274 277 276 265 255 256 259 262 262 266 268 268 269 264 267
286 295 302 309 309 310 301 287 279 271 269 274 278 281 289 293 290 289 287 289 285 279 276 274 275 275 272 268 269 274 268 261 260 259 264 266 269 271 269 267 272 274 279
295 299 302 300 296 300 301 289 280 259 257 267 267 269 278 284 286 296 299 288 278 270 282 281 279 273 269 267 263 261 261 263 264 263 265 270 268 267 273 275 269 270 269
288 298 297 296 295 297 298 307 305 301 301 298 295 292 286 292 305 308 308 305 301 294 287 270 269 268 264 263 264 266 258 257 257 260 262 262 266 267 272 274 268 265 267
267 281 283 288 291 292 296 297 305 313 314 313 310 308 307 311 313 315 316 316 314 309 289 290 279 273 272 267 261 259 262 261 258 258 262 264 266 266 268 270 268 267 267
274 272 278 270 275 281 284 288 294 303 312 313 316 319 321 322 322 322 323 327 326 328 309 297 292 290 285 279 271 263 261 264 260 259 261 263 263 264 266 267 267 267 272
280 276 273 273 277 281 285 288 291 296 299 304 312 319 326 326 328 332 334 328 312 308 305 302 299 296 293 291 287 278 267 261 260 259 261 261 260 261 262 264 264 269 274
280 288 302 294 291 295 292 291 294 296 297 301 307 311 320 325 329 332 333 325 310 301 299 297 296 293 291 290 289 287 280 270 265 262 262 263 262 261 260 262 263 263 264
290 293 300 301 289 285 285 286 290 294 297 301 301 306 318 323 315 312 312 311 304 301 300 298 296 293 289 286 284 283 281 279 271 264 264 265 266 264 263 262 261 259 260
295 296 299 296 292 289 293 293 293 293 298 299 303 310 319 324 315 312 310 308 305 299 294 293 291 288 285 283 280 281 282 281 278 272 267 264 264 263 265 263 261 262 261
308 309 308 306 301 298 305 301 297 297 298 300 304 308 311 309 305 301 301 303 302 299 297 290 288 291 292 288 280 272 272 274 274 271 267 264 262 263 262 262 262 263 261
324 316 308 304 303 300 300 299 299 298 299 300 302 303 304 303 301 300 299 299 300 298 296 292 286 285 288 291 288 280 274 276 275 268 262 261 265 267 262 260 260 258 257
327 319 313 306 305 304 301 299 299 299 300 301 302 304 305 305 305 303 301 301 300 298 297 294 288 286 285 285 287 287 285 288 289 284 264 259 261 261 261 259 257 258 252
328 314 307 302 298 297 296 296 295 296 296 298 300 300 301 302 301 300 302 302 304 302 301 298 294 293 292 290 288 290 293 294 294 293 283 265 258 258 259 257 257 256 251